Location: Unspecified
(0.0000°N, 0.0000°E)
Time: 17:54:44
(UTC+00:00)

Vanguard 2 Rocket - Pass Details

Date: 20 January 2020
Orbit: 554 x 3327 km, 32.9° (Epoch: 20 February)

Event Time Altitude Azimuth Distance (km) Brightness Sun altitude
Rises 03:35:10 0° 263° (W) 2,807 - -36.1°
Reaches altitude 10° 03:38:02 10° 284° (WNW) 1,822 - -35.5°
Maximum altitude 03:40:45 18° 329° (NNW) 1,410 - -34.8°
Drops below altitude 10° 03:43:36 10° 13° (NNE) 1,930 - -34.2°
Sets 03:46:47 0° 33° (NNE) 3,053 - -33.5°
